Hourly Data Report for November 02, 2000

SHERBROOKE A
QUEBEC

45°26'00.000" N
71°41'00.000" W
241.40 m
7028124
71610
YSC

Download Data

Hourly Data (November 2000)
Hourly Data Report for November 2, 2000
TIME
LST
Temp Definition
°C
Dew Point Definition
°C
Rel Hum Definition
%
Precip. Amount Definition
mm

Wind Dir Definition
10's deg

Wind Spd Definition
km/h
Visibility Definition
km
Stn Press Definition
kPa
Hmdx Definition


Wind Chill Definition


Weather Definition


00:00 -2.0 -3.8 87     0 15.0 99.22      
01:00 -1.3 -3.0 88     0 15.0 99.18      
02:00 -2.1 -3.3 91     0 15.0 99.15      
03:00 -3.5 -4.6 92   29 6 15.0 99.15   -6  
04:00 -4.4 -5.5 92   12 4 15.0 99.18   -6  
05:00 -4.5 -5.6 92     0 15.0 99.22      
06:00 -3.9 -4.7 94     0 12.9 99.25      
07:00 -1.9 -2.8 94     0 15.0 99.28      
08:00 -0.7 -1.9 92   26 4 24.1 99.35   -2 Mostly Cloudy
09:00 1.3 -1.3 83   28 6 24.1 99.35     Mostly Cloudy
10:00 4.9 -0.4 69   24 4 24.1 99.31     Mainly Clear
11:00 8.5 1.3 60   21 4 24.1 99.25     Mainly Clear
12:00 11.1 1.9 53   31 7 24.1 99.15     Mainly Clear
13:00 12.9 2.4 49   30 7 24.1 99.12     Mostly Cloudy
14:00 13.1 2.2 47   32 13 24.1 99.08     Mainly Clear
15:00 12.2 1.9 49   32 11 24.1 99.12     Mainly Clear
16:00 10.5 1.5 54   33 11 24.1 99.15     Mainly Clear
17:00 7.2 1.0 65   29 7 24.1 99.18     Mainly Clear
18:00 5.4 1.1 74   25 7 15.0 99.18      
19:00 4.5 0.7 76   26 9 15.0 99.25     LegendNANA
20:00 0.7 -0.8 90   8 4 15.0 99.25     LegendNANA
21:00 -0.8 -1.9 92   10 4 15.0 99.25   -2 LegendNANA
22:00 -1.5 -2.4 94   7 4 15.0 99.22   -3 LegendNANA
23:00 -2.2 -3.4 91   12 4 15.0 99.22   -4 LegendNANA

Notes on Data Quality.

Legend

  • E = Estimated
  • M = Missing
  • NA = Not Available*
  • [empty] = Indicates an unobserved value
Date modified: